Regional Weather Roundup
Issued by NWS

Home | Current Version | Previous Version | Graphics & Text | Print | Product List | Glossary On
Versions: 1 2 3 4 5 6 7 8 9 10 11 12 13 14 15 16 17 18 19 20 21 22 23 24 25 26 27 28 29 30 31 32 33 34 35 36 37 38 39 40 41 42 43 44 45 46 47 48 49 50
000
ASUS43 KLMK 281702
RWRKY
KENTUCKY REGIONAL WEATHER ROUNDUP
NATIONAL WEATHER SERVICE LOUISVILLE KY
100 PM EDT SUN AUG 28 2016

NOTE "FAIR" INDICATES FEW OR NO CLOUDS BELOW 12,000 FEET
WITH NO SIGNIFICANT WEATHER AND/OR OBSTRUCTIONS TO VISIBILITY.

KYZ001>023-026-027-061>063-070>075-281800-
WESTERN AND SOUTH CENTRAL KENTUCKY

CITY           SKY/WX    TMP DP  RH WIND       PRES   REMARKS
PADUCAH        SUNNY     90  74  59 VRB3      30.15F HX  99
HENDERSON      MOSUNNY   88  75  66 NE6       30.15F HX  97
OWENSBORO      MOSUNNY   92  77  61 VRB3      30.17F HX 105
HOPKINSVILLE   SUNNY     90  74  59 VRB3      30.16F HX  99
BOWLING GREEN  SUNNY     92  72  51 CALM      30.17F HX  99
GLASGOW        SUNNY     90  72  55 CALM      30.18F HX  97
$$

KYZ024-025-028>034-038-045-046-053-281800-
NORTH CENTRAL KENTUCKY

CITY           SKY/WX    TMP DP  RH WIND       PRES   REMARKS
LOUISVILLE/SDF MOSUNNY   91  72  53 E5        30.17F HX  98
LOUISVILLE/LOU SUNNY     91  72  53 CALM      30.18F HX  98
FORT KNOX      SUNNY     88  73  60 E6        30.18F HX  95
$$

KYZ035>037-039>044-047>052-055>060-089>105-281800-
NORTHEAST KENTUCKY

CITY           SKY/WX    TMP DP  RH WIND       PRES   REMARKS
LEXINGTON      SUNNY     90  72  55 CALM      30.21F HX  97
COVINGTON      MOSUNNY   88  73  61 E8        30.21F HX  95
FRANKFORT      SUNNY     89  73  59 CALM      30.19F HX  97
$$

KYZ054-064>069-076>088-106>120-281800-
SOUTHEAST KENTUCKY

CITY           SKY/WX    TMP DP  RH WIND       PRES   REMARKS
JACKSON        CLOUDY    87  72  60 NW3       30.23F HX  93
LONDON         CLOUDY    84  69  60 S5        30.22F
SOMERSET       SUNNY     88  68  51 CALM      30.22F HX  91
MIDDLESBORO    PTSUNNY   87  71  58 E3        30.22F HX  92
MONTICELLO     SUNNY    N/A N/A N/A N12       30.22F
$$





USA.gov is the U.S. government's official web portal to all federal, state and local government web resources and services.